[[{"header":{"parameterUnit":"m.s-1","parameterCategory":1,"la1":30.2991,"la2":30.254,"lo1":-89.0895,"lo2":-89.0444,"dy":0.0017,"dx":0.0017,"nx":28,"ny":28,"refTime":"2025-04-21T09:00:00:Z","depth":0,"parameterNumber":2,"parameterNumberName":"U-component_of_WINDS"},"data":[0,0,0,0,0,0,0,0,0,0,0,0,0,0,0,0,0,0,0,0,0,0,0,0,0,0,0,0,0,0,0,0,0,0,0,0,0,0,0,0,0,0,0,0,0,0,0,0,0,0,0,0,0,0,0,0,0,0,-1.8608,-1.8607,0,-1.8514,-1.8513,-1.8512,-1.8431,-1.843,-1.8429,-1.8428,-1.8334,-1.8332,-1.833,0,0,0,0,0,0,0,0,0,0,0,0,0,-1.872,-1.8719,-1.8608,-1.8607,-1.8606,-1.8515,-1.8513,-1.8512,-1.8431,-1.843,-1.8428,-1.8427,-1.8334,-1.8332,-1.833,0,0,0,0,0,0,0,0,0,0,0,0,0,-1.8654,-1.8718,-1.8609,-1.8554,-1.8549,-1.8515,-1.8513,-1.8512,-1.8431,-1.843,-1.8428,-1.8427,-1.8335,-1.8332,-1.833,-1.8343,0,0,-1.8322,-1.8321,0,0,0,0,0,0,0,0,-1.8658,-1.865,-1.8564,-1.8558,-1.8551,-1.8483,-1.8518,-1.8455,-1.8431,-1.8476,-1.8428,-1.8426,-1.8384,-1.8378,-1.8363,-1.8338,-1.8334,-1.8322,-1.8321,-1.832,-1.8319,0,0,0,0,0,0,0,-1.8662,-1.8653,-1.8571,-1.8562,-1.8555,-1.8536,-1.8525,-1.8506,-1.8439,-1.8472,-1.8466,-1.8455,-1.8381,-1.8366,-1.836,-1.8333,-1.8322,-1.832,-1.8319,-1.8318,-1.8314,-1.8316,0,0,0,0,0,0,-1.8675,-1.8658,-1.8574,-1.8568,-1.8602,-1.8535,-1.8523,-1.8506,-1.8439,-1.8427,-1.8457,-1.8452,-1.8371,-1.8363,-1.8357,-1.8367,-1.832,-1.8317,-1.8316,-1.8313,-1.8315,-1.8316,0,0,0,0,0,0,-1.8678,-1.8668,-1.8578,-1.8611,-1.8598,-1.8534,-1.8517,-1.8505,-1.849,-1.8428,-1.8416,-1.8453,-1.8369,-1.836,-1.8347,-1.8362,-1.8316,-1.8314,-1.8311,-1.8314,-1.8315,-1.8387,0,0,0,0,0,0,-1.8681,-1.867,-1.8673,-1.8612,-1.8597,-1.8569,-1.8518,-1.8504,-1.8486,-1.8479,-1.8421,-1.8411,-1.8368,-1.8351,-1.8344,-1.8358,-1.8312,-1.831,-1.8312,-1.8315,-1.8383,-1.8392,-1.8399,0,0,0,0,0,-1.8686,-1.8697,-1.8674,-1.8664,-1.8599,-1.857,-1.8561,-1.8511,-1.8487,-1.849,-1.8451,-1.8412,-1.8363,-1.835,-1.8342,-1.8355,-1.8308,-1.8312,-1.8315,-1.838,-1.839,-1.8399,0,0,0,0,0,0,-1.8762,-1.8688,-1.8661,-1.8653,-1.8618,-1.8556,-1.8558,-1.8523,-1.8494,-1.8489,-1.8429,-1.8417,-1.841,-1.8382,-1.8369,-1.8365,-1.833,-1.8332,-1.8383,-1.8392,-1.84,-1.8405,-1.831,0,0,0,0,0,-1.8778,-1.8759,-1.8696,-1.8695,-1.8679,-1.8622,-1.8607,-1.8572,-1.8533,-1.8518,-1.8477,-1.8442,-1.8419,-1.8404,-1.8379,-1.838,-1.8366,-1.8386,-1.8393,-1.84,-1.8401,-1.84,-1.8407,-1.8327,-1.8326,-1.8326,0,0,-1.8811,-1.8768,-1.876,-1.871,-1.8678,-1.8661,-1.861,-1.8594,-1.858,-1.8516,-1.85,-1.847,-1.8427,-1.842,-1.8416,-1.8397,-1.8421,-1.8404,-1.841,-1.8407,-1.8404,-1.8411,-1.8418,-1.8329,-1.8328,-1.8328,0,0,-1.886,-1.8827,-1.8822,-1.8792,-1.8745,-1.8708,-1.8707,-1.865,-1.8627,-1.8611,-1.8562,-1.8547,-1.8507,-1.8478,-1.8458,-1.8501,-1.8464,-1.8495,-1.8534,-1.8533,-1.854,-1.8545,-1.8559,-1.8565,-1.8497,-1.8497,-1.8497,0,-1.8907,-1.8877,-1.8824,-1.8811,-1.879,-1.8732,-1.8727,-1.8701,-1.865,-1.8637,-1.8617,-1.8567,-1.8534,-1.852,-1.853,-1.8517,-1.8514,-1.8499,-1.8543,-1.8548,-1.8552,-1.8564,-1.857,-1.8501,-1.85,-1.85,-1.85,0,-1.8936,-1.8917,-1.8919,-1.887,-1.885,-1.8841,-1.8788,-1.8775,-1.8743,-1.8708,-1.8692,-1.8651,-1.8616,-1.8611,-1.8579,-1.8593,-1.8583,-1.8554,-1.8517,-1.8564,-1.8575,-1.8579,-1.8506,-1.8505,-1.8504,-1.8503,0,0,-1.9028,-1.8951,-1.8953,-1.893,-1.8875,-1.886,-1.885,-1.8815,-1.8805,-1.8773,-1.8762,-1.8731,-1.8704,-1.8682,-1.8647,-1.8647,-1.8682,-1.8618,-1.8616,-1.8629,-1.8694,-1.8714,-1.872,-1.8659,-1.8659,-1.866,-1.8697,0,-1.9068,-1.9043,-1.8997,-1.8988,-1.897,-1.8916,-1.8907,-1.8873,-1.8841,-1.8822,-1.8787,-1.8765,-1.8732,-1.8718,-1.8716,-1.8678,-1.8693,-1.8675,-1.8648,-1.8647,-1.8657,-1.8726,-1.8747,-1.8784,-1.8701,-1.8702,-1.8702,0,-1.911,-1.9079,-1.9069,-1.9016,-1.9007,-1.8999,-1.8964,-1.8947,-1.8908,-1.8885,-1.8862,-1.8823,-1.881,-1.878,-1.8761,-1.8749,-1.8736,-1.8716,-1.8717,-1.871,-1.8676,-1.872,-1.8794,-1.8799,-1.8708,-1.8708,-1.8707,0,-1.9176,-1.9133,-1.9121,-1.9104,-1.9042,-1.9038,-1.9013,-1.8973,-1.8956,-1.8927,-1.8915,-1.8885,-1.8868,-1.8847,-1.8802,-1.8783,-1.8788,-1.8753,-1.8768,-1.8769,-1.8769,-1.8769,-1.884,-1.8765,-1.8765,-1.8764,-1.8764,0,-1.9224,-1.9219,-1.915,-1.9142,-1.9136,-1.9084,-1.9079,-1.9049,-1.9014,-1.9,-1.8953,-1.8942,-1.8884,-1.8866,-1.8831,-1.8821,-1.8814,-1.8795,-1.8785,-1.8798,-1.88,-1.8786,-1.8782,-1.8766,-1.8766,-1.8765,-1.8765,0,-1.9295,-1.9249,-1.9232,-1.9176,-1.9162,-1.916,-1.9112,-1.9103,-1.907,-1.9053,-1.9046,-1.8993,-1.8969,-1.8923,-1.8887,-1.8864,-1.8861,-1.8845,-1.8873,-1.8867,-1.8883,-1.8882,-1.8946,-1.8952,-1.8875,-1.8876,-1.8877,0,-1.9327,-1.9322,-1.9266,-1.9253,-1.9229,-1.9209,-1.9191,-1.9141,-1.9125,-1.9082,-1.9078,-1.9051,-1.9026,-1.8992,-1.895,-1.8923,-1.8905,-1.893,-1.89,-1.8913,-1.8903,-1.8903,-1.8902,-1.8935,-1.8936,-1.8937,-1.8938,0,-1.9389,-1.9367,-1.9342,-1.9311,-1.9291,-1.9264,-1.9234,-1.9227,-1.917,-1.9155,-1.913,-1.9111,-1.9074,-1.9047,-1.9014,-1.8989,-1.8954,-1.8948,-1.895,-1.8961,-1.8977,-1.8967,-1.8889,-1.8946,-1.8945,-1.8945,-1.8944,-1.8944,-1.944,-1.9433,-1.9392,-1.9367,-1.934,-1.9314,-1.9303,-1.9268,-1.9246,-1.9211,-1.9184,-1.9162,-1.9125,-1.9076,-1.9053,-1.9036,-1.9019,-1.9021,-1.9022,-1.9022,-1.9027,-1.8982,-1.903,-1.9029,-1.9029,-1.9029,-1.9029,0,-1.9498,-1.9469,-1.9447,-1.9407,-1.9388,-1.9358,-1.9324,-1.931,-1.929,-1.9259,-1.9235,-1.9207,-1.9182,-1.914,-1.9111,-1.9105,-1.9088,-1.9099,-1.9097,-1.9092,-1.9045,-1.9045,-1.9113,-1.9113,-1.9113,-1.9113,-1.9113,-1.9113,-1.9525,-1.9511,-1.9485,-1.9458,-1.943,-1.9406,-1.939,-1.9366,-1.934,-1.931,-1.9289,-1.9262,-1.9226,-1.9194,-1.917,-1.9158,-1.9149,-1.9165,-1.9148,-1.9103,-1.9096,-1.9088,-1.9088,-1.9164,-1.9164,-1.9196,-1.9197,-1.9197]},{"header":{"parameterUnit":"m.s-1","parameterCategory":1,"la1":30.2991,"la2":30.254,"lo1":-89.0895,"lo2":-89.0444,"dy":0.0017,"dx":0.0017,"nx":28,"ny":28,"refTime":"2025-04-21T09:00:00:Z","depth":0,"parameterNumber":3,"parameterNumberName":"V-component_of_WINDS"},"data":[0,0,0,0,0,0,0,0,0,0,0,0,0,0,0,0,0,0,0,0,0,0,0,0,0,0,0,0,0,0,0,0,0,0,0,0,0,0,0,0,0,0,0,0,0,0,0,0,0,0,0,0,0,0,0,0,0,0,3.5793,3.5792,0,3.5779,3.5779,3.5779,3.5757,3.5757,3.5756,3.5756,3.5741,3.5741,3.5741,0,0,0,0,0,0,0,0,0,0,0,0,0,3.58,3.58,3.5793,3.5792,3.5792,3.5779,3.5779,3.5779,3.5757,3.5757,3.5756,3.5756,3.5741,3.5741,3.5741,0,0,0,0,0,0,0,0,0,0,0,0,0,3.5792,3.58,3.5793,3.578,3.5779,3.5779,3.5779,3.5779,3.5757,3.5757,3.5756,3.5756,3.5741,3.5741,3.5741,3.5753,0,0,3.5741,3.5741,0,0,0,0,0,0,0,0,3.5793,3.5792,3.5782,3.5781,3.5779,3.5769,3.5776,3.577,3.5757,3.5765,3.5756,3.5755,3.5751,3.575,3.5749,3.5752,3.5752,3.5741,3.5741,3.5741,3.5741,0,0,0,0,0,0,0,3.5793,3.5793,3.5787,3.5782,3.578,3.5775,3.5773,3.5775,3.5762,3.5765,3.5763,3.5762,3.575,3.5749,3.5749,3.5752,3.5741,3.5741,3.5741,3.5741,3.5765,3.5766,0,0,0,0,0,0,3.5796,3.5793,3.5788,3.5787,3.5785,3.5775,3.5773,3.5773,3.5762,3.5759,3.5762,3.5761,3.5749,3.5749,3.5748,3.5762,3.5741,3.5741,3.5741,3.5764,3.5765,3.5766,0,0,0,0,0,0,3.5796,3.5796,3.5788,3.579,3.5788,3.5776,3.5776,3.5773,3.5772,3.576,3.5757,3.5764,3.5749,3.5748,3.5752,3.5761,3.5741,3.5741,3.5764,3.5765,3.5765,3.5789,0,0,0,0,0,0,3.5796,3.5796,3.58,3.579,3.5788,3.5793,3.5776,3.5773,3.5772,3.577,3.576,3.5758,3.5748,3.5752,3.5752,3.576,3.5741,3.5763,3.5764,3.5765,3.5787,3.579,3.5793,0,0,0,0,0,3.5797,3.5807,3.58,3.58,3.5793,3.5793,3.5792,3.5781,3.5773,3.5777,3.577,3.5758,3.576,3.5753,3.5753,3.5761,3.5762,3.5764,3.5765,3.5786,3.579,3.5793,0,0,0,0,0,0,3.5817,3.5805,3.5798,3.5805,3.58,3.579,3.5795,3.5786,3.5783,3.5781,3.5767,3.5765,3.5772,3.5766,3.5759,3.5772,3.5759,3.5761,3.5775,3.5779,3.5782,3.5783,3.5741,0,0,0,0,0,3.5823,3.5824,3.5813,3.582,3.5819,3.5807,3.5807,3.5799,3.5793,3.5791,3.5784,3.5779,3.5778,3.5778,3.5777,3.5786,3.5784,3.5792,3.5795,3.5797,3.5799,3.5804,3.5808,3.5771,3.5771,3.577,0,0,3.5834,3.5827,3.5829,3.5824,3.582,3.5822,3.5806,3.5808,3.5809,3.5791,3.5795,3.579,3.5784,3.5791,3.5793,3.5787,3.5809,3.5799,3.5801,3.5801,3.5806,3.581,3.5813,3.5772,3.5771,3.5771,0,0,3.5855,3.585,3.5856,3.5852,3.5846,3.5839,3.584,3.5831,3.5827,3.5831,3.5818,3.5819,3.5818,3.5815,3.5813,3.5834,3.5824,3.5834,3.585,3.5855,3.5858,3.5861,3.5869,3.5872,3.5835,3.5836,3.5836,0,3.587,3.5872,3.586,3.5864,3.5862,3.5847,3.5853,3.585,3.5844,3.5843,3.5836,3.5835,3.583,3.5836,3.5842,3.584,3.5842,3.5835,3.5859,3.5861,3.5863,3.5871,3.5875,3.5837,3.5837,3.5837,3.5836,0,3.5891,3.5892,3.5898,3.5893,3.5892,3.5897,3.5886,3.5887,3.5879,3.5873,3.5877,3.587,3.5868,3.5869,3.5861,3.5875,3.5871,3.5861,3.5848,3.5869,3.5876,3.5879,3.5839,3.5838,3.5838,3.5837,0,0,3.5924,3.5913,3.5916,3.5914,3.5906,3.5907,3.5912,3.591,3.5911,3.5908,3.5911,3.5911,3.5903,3.5901,3.5892,3.5897,3.5916,3.5887,3.5887,3.5894,3.5932,3.594,3.5943,3.5909,3.591,3.591,3.5933,0,3.5944,3.5951,3.5941,3.5951,3.5953,3.5939,3.5943,3.5939,3.5933,3.5934,3.5927,3.5928,3.5917,3.5915,3.592,3.5913,3.5924,3.5911,3.5913,3.5913,3.5916,3.5947,3.5955,3.5976,3.5935,3.5936,3.5936,0,3.5969,3.5967,3.5977,3.597,3.5971,3.5974,3.5973,3.5973,3.5969,3.5964,3.5963,3.5953,3.5957,3.5945,3.5951,3.5942,3.5943,3.594,3.594,3.594,3.5926,3.5949,3.5983,3.5987,3.594,3.594,3.594,0,3.5993,3.5993,3.6,3.5998,3.599,3.5993,3.599,3.5985,3.5985,3.5983,3.5983,3.5982,3.5981,3.5981,3.5971,3.5963,3.5979,3.5965,3.5976,3.5976,3.598,3.598,3.6015,3.5979,3.5979,3.5979,3.5979,0,3.6017,3.6024,3.6011,3.6015,3.6022,3.6011,3.6019,3.6014,3.601,3.6013,3.6,3.6003,3.599,3.5992,3.5985,3.5991,3.5991,3.5988,3.5986,3.5989,3.599,3.599,3.5988,3.598,3.598,3.5979,3.5979,0,3.6046,3.6037,3.6043,3.6035,3.6034,3.604,3.6033,3.6037,3.603,3.6034,3.6035,3.6025,3.6026,3.6017,3.6016,3.6011,3.6022,3.6017,3.6024,3.6023,3.6034,3.6034,3.6072,3.6076,3.6036,3.6037,3.6037,0,3.6062,3.6067,3.606,3.6061,3.6059,3.6061,3.6061,3.6051,3.6051,3.6047,3.6052,3.6052,3.6052,3.6056,3.6049,3.6048,3.6044,3.6057,3.6044,3.6048,3.6045,3.6046,3.6046,3.606,3.6061,3.6061,3.6061,0,3.6092,3.6087,3.6088,3.6088,3.6089,3.6088,3.6086,3.6088,3.6077,3.6078,3.608,3.608,3.6081,3.6082,3.608,3.6077,3.6068,3.6066,3.6068,3.6072,3.6077,3.6076,3.6032,3.6065,3.6065,3.6064,3.6064,3.6064,3.6115,3.6119,3.6116,3.6117,3.6115,3.6114,3.6118,3.6112,3.6114,3.6114,3.6107,3.611,3.6107,3.6104,3.6102,3.6105,3.6098,3.6102,3.6103,3.6104,3.6107,3.6076,3.6104,3.6104,3.6104,3.6104,3.6104,0,3.6145,3.6142,3.6144,3.6143,3.6144,3.6136,3.6134,3.6136,3.6139,3.6136,3.6137,3.614,3.6141,3.6135,3.6135,3.6139,3.6135,3.6139,3.6139,3.6139,3.6112,3.611,3.6143,3.6143,3.6143,3.6143,3.6143,3.6143,3.6161,3.6168,3.6164,3.6171,3.6168,3.6171,3.6171,3.617,3.6169,3.6172,3.6174,3.617,3.6166,3.6166,3.6167,3.6165,3.6167,3.6173,3.617,3.6145,3.6141,3.6137,3.6135,3.6173,3.6173,3.6197,3.6197,3.6197]}]]